Location: Az?znagar
(16.8373°N, 80.5091°E)
Time: 13:25:26
(UTC+00:00)

Envisat - Visible Passes

Search period start: 25 May 2022 00:00
Search period end: 04 June 2022 00:00
Orbit: 764 x 765 km, 98.2° (Epoch: 22 May)

Date Brightness Start Highest point End Pass type
(mag) Time Alt. Az. Time Alt. Az. Time Alt. Az.
25 May 4.9 22:18:19 10° NE 22:22:33 27° E 22:26:45 10° SSE visible
26 May 3.2 23:19:37 10° N 23:24:33 54° WNW 23:29:29 10° SSW visible
27 May 3.7 22:42:46 10° NNE 22:47:43 54° E 22:52:39 10° S visible
28 May 5.3 22:07:09 10° NE 22:10:47 20° E 22:14:23 10° SE visible
29 May 2.9 23:07:46 10° N 23:12:50 75° WNW 23:17:53 10° SSW visible
30 May 4.2 22:31:14 10° NNE 22:35:57 39° E 22:40:40 10° SSE visible
31 May 5.6 21:56:20 10° ENE 21:58:59 14° E 22:01:38 10° SE visible
31 May 3.6 23:33:16 10° N 23:37:54 37° WNW 23:42:31 10° SW visible
01 Jun 3.1 22:56:01 10° NNE 23:01:05 81° E 23:06:10 10° S visible
02 Jun 4.8 22:19:50 10° NE 22:24:11 29° E 22:28:31 10° SSE visible
03 Jun 3.3 23:21:17 10° N 23:26:11 50° WNW 23:31:04 10° SSW visible
